Regional Weather Roundup
Issued by NWS

Home | Current Version | Previous Version | Text Only | Print | Product List | Glossary On
Versions: 1 2 3 4 5 6 7 8 9 10 11 12 13 14 15 16 17 18 19 20 21 22 23 24 25 26 27 28 29 30 31 32 33 34 35 36 37 38 39 40 41 42 43 44 45 46 47 48 49 50
000
ASUS43 KMKX 060420
RWRWI

WISCONSIN REGIONAL WEATHER ROUNDUP
NATIONAL WEATHER SERVICE MILWAUKEE/SULLIVAN WI
1000 PM CST THU MAR 05 2015

NOTE: "FAIR" INDICATES FEW OR NO CLOUDS BELOW 12,000 FEET WITH NO
SIGNIFICANT WEATHER AND/OR OBSTRUCTIONS TO VISIBILITY.

WIZ001-002-006>008-014>016-023>028-060500-
NORTHWEST WISCONSIN

CITY           SKY/WX    TMP DP  RH WIND       PRES   REMARKS
SUPERIOR ARPT  FAIR       6  -4  62 SW6       30.28F WCI  -4
ASHLAND        CLEAR      6  -8  52 S13       30.30F WCI -10
HAYWARD        PTCLDY     5  -6  60 SW9       30.29F WCI  -9
SIREN          PTCLDY     6  -3  67 S6        30.30F WCI  -5
CUMBERLAND     PTCLDY     0  -8  71 S8        30.31F WCI -15
RICE LAKE      PTCLDY     1  -7  71 S7        30.35F WCI -12
CHETEK         PTCLDY     2  -5  74 S6        30.35F WCI  -9
LADYSMITH      CLEAR      0  -8  68 S7        30.35F WCI -13
EAU CLAIRE     PTCLDY     3  -6  66 SW7       30.39F WCI  -9
MENOMONIE      PTCLDY     6  -2  70 S7        30.38F WCI  -6
NEW RICHMOND   PTCLDY     5  -2  72 S8        30.34F WCI  -8
OSCEOLA        PTCLDY     6  -1  72 S9        30.36F WCI  -8
$$

WIZ003>005-009-010-017-018-060500-
NORTH CENTRAL WISCONSIN

CITY           SKY/WX    TMP DP  RH WIND       PRES   REMARKS
MANITOWISH WTR PTCLDY     1 -13  53 SW8       30.25F WCI -14
ARBOR VITAE    PTCLDY     3 -10  53 SW5       30.27S WCI  -6
WOODRUFF       PTCLDY     3 -10  53 SW5       30.27S WCI  -6
RHINELANDER    PTCLDY     1 -11  57 SW9       30.29S WCI -14
EAGLE RIVER    PTCLDY     2 -13  48 SW8       30.26S WCI -12
LAND O LAKES   PTCLDY     3 -12  48 SW5       30.25S WCI  -6
PHILLIPS       PTCLDY     2  -8  63 SW6       30.29F WCI  -9
TOMAHAWK       FAIR       0 -11  60 CALM      30.32S
MEDFORD        CLEAR      1 -10  60 SW6       30.33S WCI -11
MERRILL        CLEAR     -2 -11  66 CALM      30.35S
$$

WIZ029-030-035-036-043>047-060500-
CENTRAL WISCONSIN

CITY           SKY/WX    TMP DP  RH WIND       PRES   REMARKS
WAUSAU         CLEAR      2 -11  54 SW5       30.36S WCI  -8
MOSINEE        CLEAR      1  -9  60 SW3       30.38S
MARSHFIELD     PTCLDY     2  -9  60 W8        30.38R WCI -12
STEVENS POINT  PTCLDY    -2 -11  65 SW3       30.40S
WAUPACA        PTCLDY     7  -6  55 SW5       30.43S WCI  -2
WAUTOMA        MOCLDY     2  -9  60 CALM      30.45S
WISC RAPIDS    MOCLDY     6  -8  52 SW8       30.43R WCI  -7
CAMP DOUGLAS   CLEAR      5  -4  66 SW6       30.44R WCI  -6
$$

WIZ011>013-019>022-031-037>040-048>050-060500-
NORTHEAST WISCONSIN

CITY           SKY/WX    TMP DP  RH WIND       PRES   REMARKS
ANTIGO         PTCLDY    -3 -10  70 SW5       30.33R WCI -13
SHAWANO        PTCLDY     6  -7  55 CALM      30.41F
OCONTO         PTCLDY     4  -8  56 W5        30.42S WCI  -5
STURGEON BAY   PTCLDY     7  -8  51 SW7       30.42S WCI  -5
GREEN BAY      PTCLDY     4  -7  60 SW6       30.43S WCI  -7
MANITOWOC      MOCLDY     5  -4  66 S5        30.45S WCI  -4
APPLETON       CLEAR      7  -8  51 W8        30.42S WCI  -6
CLINTONVILLE   PTCLDY     5  -8  56 SW5       30.41S WCI  -4
OSHKOSH        PTCLDY     7  -6  55 SW3       30.44R
$$

WIZ032>034-041-042-053>061-060500-
SOUTHWEST WISCONSIN

CITY           SKY/WX    TMP DP  RH WIND       PRES   REMARKS
LA CROSSE      PTCLDY     7  -3  64 S7        30.47S WCI  -5
SPARTA         PTCLDY     5  -5  64 CALM      30.47R
VIROQUA        PTCLDY     1  -6  73 SW7       30.42S WCI -11
BOSCOBEL       PTCLDY     3  -6  66 SW3       30.51S
PRAIRIE DU CHI PTCLDY     1  -7  69 CALM      30.52R
PLATTEVILLE    MOCLDY     2  -6  71 S5        30.48F WCI  -8
$$

WIZ056-057-062-063-064-067-068-060500-
SOUTH CENTRAL WISCONSIN

CITY           SKY/WX    TMP DP  RH WIND       PRES   REMARKS
REEDSBURG      PTCLDY     6  -5  61 SW6       30.45F WCI  -5
BARABOO/DELLS  PTCLDY     5  -7  58 CALM      30.44S
LONE ROCK      PTCLDY     5  -6  60 CALM      30.50S
MINERAL POINT  PTCLDY     5  -4  66 SW5       30.45F WCI  -4
MADISON        PTCLDY     6  -6  57 SW6       30.48R WCI  -4
MIDDLETON      PTCLDY     8  -7  52 SW7       30.47S WCI  -4
WATERTOWN      PTCLDY     5  -5  64 CALM      30.47F
MONROE         MOCLDY     3  -4  72 SW14      30.47S WCI -15
JANESVILLE     PTCLDY     3  -6  66 SW5       30.51S WCI  -6
$$

WIZ051-052-058>065-066-070>072-060500-
SOUTHEAST WISCONSIN

CITY           SKY/WX    TMP DP  RH WIND       PRES   REMARKS
MILWAUKEE      PTCLDY     7  -6  55 W9        30.51R WCI  -7
WAUKESHA       PTCLDY     5  -6  61 SW6       30.49S WCI  -6
MILWAUKEE/TIMM PTCLDY     7  -6  56 SW6       30.50S WCI  -3
RACINE         PTCLDY     5  -7  57 SW7       30.52S WCI  -7
BURLINGTON     MOCLDY    -1  -8  71 SW3       30.50F
KENOSHA        PTCLDY     3  -8  60 SW8       30.51R WCI -10
FOND DU LAC    PTCLDY     7  -4  60 SW8       30.45R WCI  -6
SHEBOYGAN      MOCLDY     2  -7  66 SW10      30.46R WCI -14
WEST BEND      MOCLDY     7  -6  56 SW8       30.46R WCI  -6
JUNEAU         PTCLDY     4  -5  67 S8        30.47S WCI  -9
$$

LSZ147-162-060500-
LAKE SUPERIOR

STATION/POSITION TIME  TEMP    WIND        PRES    WAVE
                       AIR SEA DIR/SP/G            HT/PER
                 (UTC) (F)     (DEG/KT/KT) (MB)    (FT/S)
DEVILS ISLAND    0400   10     230/ 15/ 17 1026.5F
PORT WING        0300   10     200/ 10/ 15 1026.1
SAXON HARBOR     0300    9     200/  7/ 13 1026.4F
$$

LMZ867-665-643>646-060500-
LAKE MICHIGAN

STATION/POSITION TIME  TEMP    WIND        PRES    WAVE
                       AIR SEA DIR/SP/G            HT/PER
                 (UTC) (F)     (DEG/KT/KT) (MB)    (FT/S)
NORTHPORT PIER   0321    9     240/  6/ 12 1029.1S
SISTER BAY       0328    9     240/ 13/ 16   N/A
KEWAUNEE LAKESHO 0300    9     240/  1/  6 1029.5F
SHEBOYGAN LAKESH 0400   11     210/ 13/ 15 1033.6R
PORT WASHINGTON  0300   10     240/  5/  7 1032.8
MILWAUKEE LAKESH 0400   11     250/ 12/ 15   N/A
KENOSHA   LAKESH 0400    8     250/  7/ 10 1033.2S
$$

TC  - TEMPERATURE IN CELSIUS
VSB - VISIBILITY IN STATUTE MILES
WCI - WIND CHILL INDEX
HX  - HEAT INDEX




USA.gov is the U.S. government's official web portal to all federal, state and local government web resources and services.